Location: *
(45.1961°N, 1.9694°E)
Time: 09:48:26
(UTC+00:00)

Cosmos 1025 Rocket - Pass Details

Date: 25 August 2019
Orbit: 593 x 619 km, 82.5° (Epoch: 14 September)

Event Time Altitude Azimuth Distance (km) Brightness Sun altitude
Rises 22:05:27 0° 347° (NNW) 2,880 7.6 -29.0°
Reaches altitude 10° 22:07:42 10° 343° (NNW) 1,966 6.5 -29.2°
Enters shadow 22:10:40 39° 321° (NW) 912 4.3 -29.5°
